The following orbital elements are taken from MPC 61994:
Epoch 2007 Jan. 20.0 TT = JDT 2454120.5
T 2007 Jan. 6.5037 TT MPC
q 6.040565 (2000.0) P Q
z -0.000197 Peri. 232.7789 +0.1470953 +0.0015314
+/-0.000004 Node 95.0346 -0.2307170 +0.9724677
e 1.001192 Incl. 83.1935 -0.9618382 -0.2330325
From 80 observations 2006 Apr. 26-2008 Feb. 13, mean residual 0".6.